Regional Weather Roundup
Issued by NWS Austin/San Antonio, TX

Home | Current Version | Previous Version | Text Only | Print | Product List | Glossary On
Versions: 1 2 3 4 5 6 7 8 9 10 11 12 13 14 15 16 17 18 19 20 21 22 23 24 25 26 27 28 29 30 31 32 33 34 35 36 37 38 39 40 41 42 43 44 45 46 47 48 49 50
544
ASUS44 KEWX 210211
RWREWX
SOUTH TEXAS REGIONAL WEATHER ROUNDUP
NATIONAL WEATHER SERVICE AUSTIN/SAN ANTONIO TX
900 PM CDT SUN OCT 20 2019

NOTE: "FAIR" INDICATED FEW OR NO CLOUDS BELOW 12,000 FEET WITH NO
SIGNIFICANT WEATHER AND/OR OBSTRUCTIONS TO VISIBILITY.

* - THESE STATIONS ARE NOT NWS OR FAA STATIONS...AND ARE NOT SUBJECT
    TO NWS AND FAA QUALITY CONTROL.

TXZ171-172-183>190-210300-
TEXAS HILL COUNTRY AND EDWARDS PLATEAU

CITY           SKY/WX    TMP DP  RH WIND       PRES   REMARKS
JUNCTION       CLEAR     81  68  64 S7        29.72R
*LLANO         CLEAR     82  68  61 S3        29.72R
BURNET         CLEAR     80  66  62 S7        29.71S
*HORSESHOE BAY PTCLDY    81  66  61 S8        29.71R
*KERRVILLE     MOCLDY    79  70  74 CALM      29.73F
*FREDERICKSBRG PTCLDY    77  66  68 CALM      29.74S
*ROCKSPRINGS   CLEAR     77  66  69 SE6       29.80R
*BOERNE        CLOUDY    79  73  83 S6        29.75R
*CASTROVILLE   CLEAR     84  68  58 S10       29.72R
HONDO          PTCLDY    84  70  62 S20G26    29.70R
*UVALDE        PTCLDY    82  69  64 SE15      29.69R
DEL RIO        CLEAR     86  66  51 E6        29.63R
LAUGHLIN AFB   CLEAR     81  67  62 E8        29.65R
SPOFFORD       CLEAR     83  69  61 SE10      29.60R
*EAGLE PASS    CLEAR     86  68  54 SE14G22   29.66R
CARRIZO SPRGS  CLEAR     84  70  61 S7        29.67R
*FAITH RANCH   CLEAR     84  72  65 SE13G20   29.68S
$$

TXZ173-191>194-202-209-217>225-228-210300-
CENTRAL AND SOUTH CENTRAL TEXAS

CITY           SKY/WX    TMP DP  RH WIND       PRES   REMARKS
GEORGETOWN     CLEAR     81  70  69 S15G23    29.72R
AUSTIN/BERGSTM MOCLDY    78  70  76 SE14      29.71R
AUSTIN/MABRY   CLOUDY    80  69  69 VRB7      29.72R
*AUSTIN/EXEC   MOCLDY    75  70  83 S7        29.72R
*LAGO VISTA    PTCLDY    79  72  79 S12G24    29.74R
SAN MARCOS     CLOUDY    81  75  82 S15       29.73R
NEW BRAUNFELS  MOCLDY    82  73  74 S17       29.71R
RANDOLPH AFB   PTCLDY    81  74  79 S20G26    29.71R
SEGUIN         PTCLDY    80  73  79 S18       29.75R
KELLY FIELD    CLEAR     83  73  70 SE16      29.69R
SAN ANTONIO    PTCLDY    82  74  76 SE16      29.72R
STINSON FIELD  CLEAR     82  74  76 SE15G22   29.68R
PLEASANTON     CLEAR     82  71  68 S7        29.72R
*LA GRANGE     TSTM      83  77  81 S13G21    29.72R HX  91
*GIDDINGS      HVY RAIN  81  76  86 S18G26    29.74R
*GONZALES      CLOUDY    82  75  80 S13       29.73R
$$

TXZ163>164-176>182-195>201-210>213-226-227-235-210300-
SOUTHEAST TEXAS

CITY           SKY/WX    TMP DP  RH WIND       PRES   REMARKS
COLLEGE STN    PTCLDY    83  74  74 S17G28    29.72R
*BRYAN         CLOUDY    83  74  74 S18G25    29.73R HX  90
*CALDWELL      MOCLDY    81  74  78 S16       29.73R
*CROCKETT      CLEAR     79  73  83 S10       29.75R
*BRENHAM       CLOUDY    82  75  79 S12G20    29.74R
HUNTSVILLE     MOCLDY    82  72  71 S12G22    29.73R
CONROE         CLEAR     80  73  79 S13G22    29.76R
HOUSTON BUSH   PTCLDY    81  74  79 S10       29.77R
HOUSTON HOBBY  MOCLDY    81  75  82 S9        29.78R
*HOUSTON SW AP MOCLDY    79  76  90 S3        29.79R
PEARLAND       CLOUDY    82  75  79 S7        29.80R
HOUSTON HOOKS  FAIR      81  72  74 S12G22    29.75R
ELLINGTON FLD  MOCLDY    81  72  74 S9        29.77R
SUGAR LAND     MOCLDY    81  77  88 S12       29.77R
*HOUSTON EXEC  FAIR      81  77  89 S14       29.77R
*CLEVELAND MUN FAIR      78  77  96 S13G23    29.77R
*WHARTON       PTCLDY    79  74  84 SE10      29.77S
*COLUMBUS      MOCLDY    78  72  80 S13G23    29.75S
*EAGLE LAKE    CLOUDY    82  78  86 S14       29.74  HX  92
$$

TXZ214>216-236>238-210300-
THE UPPER TEXAS COAST

CITY           SKY/WX    TMP DP  RH WIND       PRES   REMARKS
*ORANGE        FAIR      80  79  96 S8        29.82S
PORT ARTHUR    FAIR      80  76  87 S12       29.79S
GALVESTON      FAIR      82  78  88 S18       29.79R HX  91
ANGLETON       FAIR      80  75  84 S12       29.78R
*BAY CITY      CLEAR     82  79  90 SE9       29.77S HX  92
PALACIOS       CLEAR     82  76  81 SE14      29.75S
$$

TXZ229>234-239>247-210300-
TEXAS COASTAL BEND AND RIO GRANDE PLAINS

CITY           SKY/WX    TMP DP  RH WIND       PRES   REMARKS
VICTORIA       MOCLDY    81  77  88 S13       29.75R
*BEEVILLE      CLEAR     84  77  81 S13       29.72S HX  93
ROCKPORT       PTCLDY    84  77  79 S8        29.73R HX  94
*PORT ARANSAS  PTCLDY    82  78  89 S13       29.75R HX  91
*PORT LAVACA   PTCLDY    83  79  89 SE14      29.75R HX  94
*INGLESIDE     MOCLDY    83  80  90 S13       29.73R HX  94
CORPUS CHRISTI CLOUDY    83  78  85 S20       29.73R HX  93
CORPUS NAS     PTCLDY    82  81  96 S17G24    29.73R HX  95
*ROBSTOWN      MOCLDY    82  76  82 S18G25    29.73R HX  90
ALICE          PTCLDY    83  76  79 S16       29.72R HX  91
KINGSVILLE NAS PTCLDY    83  77  82 S16       29.73R HX  92
COTULLA        MOCLDY    86  72  62 SE8       29.70R HX  92
LAREDO         CLEAR     85  74  69 SE20      29.69R HX  92
$$

TXZ248>255-210300-
DEEP SOUTH TEXAS

CITY           SKY/WX    TMP DP  RH WIND       PRES   REMARKS
BROWNSVILLE    FAIR      82  78  88 SE12      29.74R HX  91
PORT ISABEL    FAIR      82  78  88 SE12      29.73R HX  91
HARLINGEN      MOCLDY    82  79  90 SE10      29.73R HX  92
*HEBBRONVILLE  CLEAR     81  72  73 S5G16     29.75R
MCALLEN        CLOUDY    83  77  82 SE13G22   29.74R HX  92
*WESLACO       CLOUDY    81  77  88 S8        29.73
FALFURRIAS     CLEAR     84  76  75 SE10G17   29.73R HX  93
EDINBURG       RAIN      80  76  90 SE10      29.74R
*ZAPATA        NOT AVBL
$$

TXZ213>215-236>238-242>244-246-247-251-254-255-210300-
CMAN STATIONS

STATION/POSITION TIME  TEMP    WIND        PRES    WAVE
                       AIR SEA DIR/SP/G            HT/PER
                 (UTC) (F)     (DEG/KT/KT) (MB)    (FT/S)
SABINE PASS      0130   80 77  160/ 12/ 15 1010.8
SEA RIM ST PARK  0200   80     150/ 12/ 14 1009.0
NORTH JETTY/GLS  0124   81 77  170/ 14/ 17 1007.4
EAGLE POINT      0130   81 77  170/ 13/ 15 1007.9
MORGANS POINT    0130   79 77  160/  5/  7 1008.4
PORT O`CONNOR    0130   81 82  150/ 15/ 18 1006.7
PORT ARANSAS     0200   81 80  160/ 14/ 17 1006.9
MALAQUITE BEACH  0130   81 81  140/ 19/ 22 1006.1
BAFFIN BAY       0130   81 81  130/ 13/ 17 1006.9
PORT ISABEL      0130   82 81  140/ 14/ 18 1007.1
$$




USA.gov is the U.S. government's official web portal to all federal, state and local government web resources and services.